W7BTL Weather Reports


time (UTC)temp
F
wind
direction
speed
knots
gust
knots
rain 1hr
in
rain 24hr
in
rain mn
in
humidity
%
barometer
mb
20260507000850 75 172 0.0 0.0 0.00 0.00 0.00 47 1015.5
20260507000345 76 193 0.9 0.9 0.00 0.00 0.00 45 1015.6
20260506235841 76 208 0.0 0.0 0.00 0.00 0.00 45 1015.4
20260506235338 76 212 0.9 0.9 0.00 0.00 0.00 45 1015.5
20260506234834 76 174 0.0 0.9 0.00 0.00 0.00 45 1015.5
20260506234332 77 175 0.0 0.0 0.00 0.00 0.00 45 1015.5
20260506233830 77 173 0.9 0.9 0.00 0.00 0.00 44 1015.4
20260506233325 77 163 0.0 0.9 0.00 0.00 0.00 44 1015.4
20260506232823 77 187 0.0 0.9 0.00 0.00 0.00 44 1015.5
20260506232318 78 181 1.7 1.7 0.00 0.00 0.00 42 1015.3
20260506231815 79 139 0.0 0.9 0.00 0.00 0.00 42 1015.5
20260506231313 79 185 0.0 0.9 0.00 0.00 0.00 42 1015.7
20260506230810 79 203 0.9 0.9 0.00 0.00 0.00 41 1015.6
20260506230306 81 232 0.9 0.9 0.00 0.00 0.00 40 1015.7
20260506225803 84 239 0.9 0.9 0.00 0.00 0.00 37 1015.6
20260506225300 86 119 0.9 0.9 0.00 0.00 0.00 35 1015.7
20260506224756 88 228 0.0 0.0 0.00 0.00 0.00 33 1015.6
20260506224254 89 165 0.0 0.0 0.00 0.00 0.00 31 1015.8
20260506223750 89 131 0.0 0.0 0.00 0.00 0.00 31 1015.8
20260506223246 89 170 0.9 1.7 0.00 0.00 0.00 31 1015.8
20260506222743 90 238 1.7 1.7 0.00 0.00 0.00 31 1015.9
20260506222239 89 172 0.9 0.9 0.00 0.00 0.00 30 1015.9
20260506221737 90 46 0.9 0.9 0.00 0.00 0.00 30 1016.0
20260506221234 91 227 1.7 1.7 0.00 0.00 0.00 29 1015.9
20260506220731 90 148 0.9 0.9 0.00 0.00 0.00 31 1016.1
20260506220226 90 209 0.9 0.9 0.00 0.00 0.00 30 1016.3
20260506215723 89 162 0.9 0.9 0.00 0.00 0.00 30 1016.3
20260506215219 88 205 0.0 0.9 0.00 0.00 0.00 32 1016.5
20260506214715 86 172 0.0 0.0 0.00 0.00 0.00 33 1016.3
20260506214213 85 215 0.9 0.9 0.00 0.00 0.00 34 1016.5
20260506213711 86 191 0.9 1.7 0.00 0.00 0.00 32 1016.3
20260506213208 86 238 0.0 0.9 0.00 0.00 0.00 33 1016.5
20260506212705 85 165 0.9 1.7 0.00 0.00 0.00 34 1016.6
20260506212200 84 220 0.0 0.0 0.00 0.00 0.00 34 1016.3
20260506211656 85 210 0.9 0.9 0.00 0.00 0.00 33 1016.5
20260506211152 84 53 0.9 0.9 0.00 0.00 0.00 34 1016.6
20260506210649 84 217 0.9 0.9 0.00 0.00 0.00 35 1016.7
20260506210146 84 260 1.7 2.6 0.00 0.00 0.00 34 1016.8
20260506205644 84 245 0.9 0.9 0.00 0.00 0.00 35 1016.4
20260506205138 83 211 0.9 0.9 0.00 0.00 0.00 36 1016.6
20260506204636 84 355 1.7 1.7 0.00 0.00 0.00 35 1016.8
20260506204133 85 287 0.9 0.9 0.00 0.00 0.00 35 1016.8
20260506203631 86 250 1.7 1.7 0.00 0.00 0.00 34 1016.9
20260506203127 86 254 0.9 0.9 0.00 0.00 0.00 34 1016.9
20260506202626 87 230 0.9 1.7 0.00 0.00 0.00 33 1017.0
20260506202121 89 225 0.9 0.9 0.00 0.00 0.00 31 1017.1
20260506201619 89 227 0.0 0.9 0.00 0.00 0.00 31 1017.2
20260506201115 88 224 0.0 0.0 0.00 0.00 0.00 32 1017.1
20260506200612 87 192 0.0 0.0 0.00 0.00 0.00 31 1017.1
20260506200109 85 193 0.9 0.9 0.00 0.00 0.00 34 1017.2
20260506195605 85 246 0.9 0.9 0.00 0.00 0.00 34 1017.4
20260506195102 87 272 0.9 0.9 0.00 0.00 0.00 33 1017.4
20260506194559 86 243 0.0 0.0 0.00 0.00 0.00 33 1017.2
20260506194055 86 242 0.0 0.0 0.00 0.00 0.00 33 1017.5
20260506193553 87 244 0.9 0.9 0.00 0.00 0.00 33 1017.5
20260506193050 87 202 0.9 0.9 0.00 0.00 0.00 33 1017.8
20260506192547 84 214 0.0 0.0 0.00 0.00 0.00 34 1017.7
20260506192043 84 232 0.9 0.9 0.00 0.00 0.00 35 1017.7
20260506191540 87 242 2.6 3.5 0.00 0.00 0.00 33 1017.8
20260506191035 90 161 0.9 0.0 0.00 0.00 0.00 30 1017.9
20260506190533 90 135 0.9 0.9 0.00 0.00 0.00 28 1017.9
20260506190030 91 130 0.9 0.9 0.00 0.00 0.00 27 1017.8
20260506185527 91 238 0.9 0.9 0.00 0.00 0.00 28 1017.9
20260506185024 89 237 0.0 0.0 0.00 0.00 0.00 29 1017.8
20260506184521 87 238 0.9 0.9 0.00 0.00 0.00 31 1018.0
20260506184018 85 238 0.9 0.9 0.00 0.00 0.00 32 1018.1
20260506183514 83 237 0.0 0.0 0.00 0.00 0.00 34 1018.1
20260506183011 87 222 0.0 0.0 0.00 0.00 0.00 31 1018.3
20260506182508 88 151 0.0 0.0 0.00 0.00 0.00 31 1018.3
20260506182005 86 166 0.0 0.0 0.00 0.00 0.00 32 1018.2
20260506181503 84 234 0.0 0.0 0.00 0.00 0.00 34 1018.4
20260506181000 83 235 0.0 0.9 0.00 0.00 0.00 35 1018.4
20260506180456 81 237 0.9 0.9 0.00 0.00 0.00 36 1018.3
20260506175953 84 230 0.9 1.7 0.00 0.00 0.00 34 1018.2
20260506175449 84 203 0.0 0.9 0.00 0.00 0.00 34 1018.3
20260506174946 85 182 0.9 0.9 0.00 0.00 0.00 32 1018.3
20260506174444 85 177 0.9 0.9 0.00 0.00 0.00 33 1018.2
20260506173940 84 175 0.9 0.9 0.00 0.00 0.00 33 1018.6
20260506173438 80 237 0.0 0.0 0.00 0.00 0.00 38 1018.6
20260506172934 81 236 0.9 0.9 0.00 0.00 0.00 38 1018.4
20260506172432 81 245 0.9 0.9 0.00 0.00 0.00 37 1018.5
20260506171928 79 230 0.0 0.0 0.00 0.00 0.00 39 1018.4
20260506171426 79 98 0.9 0.9 0.00 0.00 0.00 41 1018.3
20260506170924 80 61 0.9 0.9 0.00 0.00 0.00 40 1018.3
20260506170419 80 124 0.9 0.9 0.00 0.00 0.00 39 1018.4
20260506165919 81 129 0.9 0.0 0.00 0.00 0.00 38 1018.4
20260506165417 81 98 0.0 0.9 0.00 0.00 0.00 38 1018.4
20260506164912 81 98 0.9 0.9 0.00 0.00 0.00 39 1018.4
20260506164409 80 240 0.0 0.9 0.00 0.00 0.00 40 1018.3
20260506163908 80 243 0.9 0.9 0.00 0.00 0.00 39 1018.4
20260506163401 76 83 0.0 0.0 0.00 0.00 0.00 45 1018.3
20260506162856 75 69 0.9 0.9 0.00 0.00 0.00 46 1018.4
20260506162355 74 104 0.0 0.9 0.00 0.00 0.00 48 1018.4
20260506161852 75 63 1.7 1.7 0.00 0.00 0.00 47 1018.3
20260506161349 77 98 1.7 1.7 0.00 0.00 0.00 46 1018.3
20260506160847 75 183 0.0 0.0 0.00 0.00 0.00 48 1018.4
20260506160343 74 183 0.0 0.0 0.00 0.00 0.00 50 1018.4
20260506155842 73 165 0.0 0.0 0.00 0.00 0.00 52 1018.5
20260506155338 75 165 0.9 0.9 0.00 0.00 0.00 48 1018.5
20260506153450 73 91 0.0 0.0 0.00 0.00 0.00 53 1018.4
20260506152948 72 91 0.0 0.0 0.00 0.00 0.00 55 1018.5
20260506152444 70 96 0.0 0.0 0.00 0.00 0.00 58 1018.5
20260506151943 68 60 0.0 0.0 0.00 0.00 0.00 61 1018.4
20260506151440 67 76 0.0 0.0 0.00 0.00 0.00 64 1018.6
20260506150937 66 75 0.0 0.0 0.00 0.00 0.00 67 1018.6
20260506150433 64 76 0.0 0.0 0.00 0.00 0.00 69 1018.5
20260506145931 63 77 0.0 0.9 0.00 0.00 0.00 71 1018.5
20260506145427 63 76 0.0 0.9 0.00 0.00 0.00 73 1018.6
20260506144924 62 69 0.0 0.9 0.00 0.00 0.00 74 1018.6
20260506144421 61 122 0.0 0.0 0.00 0.00 0.00 76 1018.4
20260506143919 60 76 0.0 0.0 0.00 0.00 0.00 78 1018.3
20260506143416 60 92 0.0 0.9 0.00 0.00 0.00 79 1018.4
20260506142914 59 98 0.0 0.0 0.00 0.00 0.00 81 1018.5
20260506142412 59 109 0.9 0.9 0.00 0.00 0.00 82 1018.5
20260506141910 58 191 0.0 0.0 0.00 0.00 0.00 84 1018.6
20260506141407 57 193 0.0 0.9 0.00 0.00 0.00 85 1018.3
20260506140906 56 193 0.0 0.0 0.00 0.00 0.00 87 1018.2
20260506140402 55 193 0.0 0.0 0.00 0.00 0.00 90 1018.0
20260506135859 54 193 0.0 0.0 0.00 0.00 0.00 91 1018.1
20260506135356 54 193 0.0 0.0 0.00 0.00 0.00 92 1018.2
20260506134852 53 193 0.0 0.0 0.00 0.00 0.00 93 1018.2
20260506134348 53 193 0.0 0.0 0.00 0.00 0.00 94 1018.1
20260506133846 52 193 0.0 0.0 0.00 0.00 0.00 96 1018.0
20260506133342 52 193 0.0 0.0 0.00 0.00 0.00 96 1018.2
20260506132839 51 193 0.0 0.0 0.00 0.00 0.00 96 1018.0
20260506132336 51 193 0.0 0.0 0.00 0.00 0.00 95 1018.1
20260506131834 51 193 0.0 0.0 0.00 0.00 0.00 95 1017.8
20260506131330 51 193 0.0 0.0 0.00 0.00 0.00 95 1018.0
20260506130828 51 193 0.0 0.0 0.00 0.00 0.00 95 1017.8
20260506130324 51 193 0.0 0.0 0.00 0.00 0.00 95 1017.9
20260506125822 51 193 0.0 0.0 0.00 0.00 0.00 95 1017.8
20260506125320 51 193 0.0 0.0 0.00 0.00 0.00 95 1017.8
20260506124818 51 193 0.0 0.0 0.00 0.00 0.00 95 1017.6
20260506124315 51 193 0.0 0.0 0.00 0.00 0.00 95 1017.6
20260506123812 51 193 0.0 0.0 0.00 0.00 0.00 95 1017.5
20260506123311 51 193 0.0 0.0 0.00 0.00 0.00 95 1017.2
20260506122807 51 193 0.0 0.0 0.00 0.00 0.00 94 1017.5
20260506122306 51 193 0.0 0.0 0.00 0.00 0.00 94 1017.4
20260506121803 51 193 0.0 0.0 0.00 0.00 0.00 94 1017.2
20260506121259 51 193 0.0 0.0 0.00 0.00 0.00 94 1017.4
20260506120757 51 193 0.0 0.0 0.00 0.00 0.00 94 1017.4
20260506120254 52 193 0.0 0.0 0.00 0.00 0.00 94 1017.5
20260506115752 52 193 0.0 0.0 0.00 0.00 0.00 94 1017.4
20260506115249 52 193 0.0 0.0 0.00 0.00 0.00 94 1017.2
20260506114747 52 193 0.0 0.0 0.00 0.00 0.00 94 1017.5
20260506114245 52 193 0.0 0.0 0.00 0.00 0.00 94 1017.4
20260506113743 52 193 0.0 0.0 0.00 0.00 0.00 94 1017.2
20260506113240 52 193 0.0 0.0 0.00 0.00 0.00 94 1017.2
20260506112736 52 193 0.0 0.0 0.00 0.00 0.00 94 1017.2
20260506112234 52 193 0.0 0.0 0.00 0.00 0.00 94 1017.3
20260506111731 52 193 0.0 0.0 0.00 0.00 0.00 94 1017.1
20260506111230 53 193 0.0 0.0 0.00 0.00 0.00 93 1017.3
20260506110726 53 193 0.0 0.0 0.00 0.00 0.00 93 1017.2
20260506110224 53 193 0.0 0.0 0.00 0.00 0.00 93 1017.0
20260506105720 53 193 0.0 0.0 0.00 0.00 0.00 92 1017.1
20260506105217 53 193 0.0 0.0 0.00 0.00 0.00 92 1017.2
20260506104715 53 193 0.0 0.0 0.00 0.00 0.00 92 1017.4
20260506104212 53 193 0.0 0.0 0.00 0.00 0.00 92 1017.2
20260506103709 53 193 0.0 0.0 0.00 0.00 0.00 91 1017.4
20260506103206 54 193 0.0 0.0 0.00 0.00 0.00 91 1017.1
20260506102704 54 193 0.0 0.0 0.00 0.00 0.00 91 1017.2
20260506102202 54 193 0.0 0.0 0.00 0.00 0.00 91 1017.2
20260506101658 54 193 0.0 0.0 0.00 0.00 0.00 92 1017.2
20260506101155 53 193 0.0 0.0 0.00 0.00 0.00 92 1017.1
20260506100653 53 193 0.0 0.0 0.00 0.00 0.00 90 1017.1
20260506100151 54 193 0.0 0.0 0.00 0.00 0.00 91 1017.2
20260506095650 54 193 0.0 0.0 0.00 0.00 0.00 91 1017.1
20260506095146 54 193 0.0 0.0 0.00 0.00 0.00 91 1017.2
20260506094643 54 193 0.0 0.0 0.00 0.00 0.00 92 1017.2
20260506094141 54 193 0.0 0.0 0.00 0.00 0.00 92 1017.3
20260506093639 54 193 0.0 0.0 0.00 0.00 0.00 92 1017.2
20260506093136 54 193 0.0 0.0 0.00 0.00 0.00 92 1017.3
20260506092634 54 193 0.0 0.0 0.00 0.00 0.00 92 1017.2
20260506092131 54 193 0.0 0.0 0.00 0.00 0.00 91 1017.2
20260506091629 54 193 0.0 0.0 0.00 0.00 0.00 92 1017.2
20260506091126 54 193 0.0 0.0 0.00 0.00 0.00 92 1017.2
20260506090624 54 193 0.0 0.0 0.00 0.00 0.00 90 1017.4
20260506090120 54 193 0.0 0.0 0.00 0.00 0.00 91 1017.4
20260506085617 54 193 0.0 0.0 0.00 0.00 0.00 90 1017.4
20260506085113 54 193 0.0 0.0 0.00 0.00 0.00 92 1017.3
20260506084610 54 193 0.0 0.0 0.00 0.00 0.00 91 1017.6
20260506084107 54 193 0.0 0.0 0.00 0.00 0.00 91 1017.5
20260506083604 54 193 0.0 0.0 0.00 0.00 0.00 90 1017.5
20260506083101 54 193 0.0 0.0 0.00 0.00 0.00 90 1017.6
20260506082558 54 193 0.0 0.0 0.00 0.00 0.00 89 1017.7
20260506082053 55 193 0.0 0.0 0.00 0.00 0.00 89 1017.5
20260506081552 55 193 0.0 0.0 0.00 0.00 0.00 89 1017.8
20260506081049 55 193 0.0 0.0 0.00 0.00 0.00 88 1017.7
20260506080547 55 193 0.0 0.0 0.00 0.00 0.00 87 1017.7
20260506073027 55 193 0.0 0.0 0.00 0.00 0.00 87 1017.7
20260506072524 55 193 0.0 0.0 0.00 0.00 0.00 85 1017.7
20260506072022 55 193 0.0 0.0 0.00 0.00 0.00 85 1017.7
20260506071520 55 193 0.0 0.0 0.00 0.00 0.00 83 1017.6
20260506071016 55 193 0.0 0.0 0.00 0.00 0.00 82 1017.4
20260506070514 55 193 0.0 0.0 0.00 0.00 0.00 82 1017.4
20260506062451 56 193 0.0 0.0 0.00 0.18 0.18 81 1017.2
20260506061947 56 193 0.0 0.0 0.00 0.18 0.18 81 1017.1
20260506061444 56 193 0.0 0.0 0.00 0.18 0.18 78 1017.1
20260506060942 56 193 0.0 0.0 0.00 0.18 0.18 78 1017.1
20260506060440 57 193 0.0 0.0 0.00 0.18 0.18 78 1017.0
20260506051412 58 193 0.0 0.0 0.00 0.18 0.18 75 1016.7
20260506050908 58 193 0.0 0.0 0.00 0.18 0.18 75 1016.9
20260506050406 58 193 0.0 0.0 0.00 0.18 0.18 74 1016.4
20260506044856 59 193 0.0 0.0 0.00 0.18 0.18 73 1016.4
20260506044354 59 193 0.0 0.0 0.00 0.18 0.18 73 1016.3
20260506043851 59 193 0.0 0.0 0.00 0.18 0.18 73 1016.3
20260506043348 59 193 0.0 0.0 0.00 0.18 0.18 73 1016.2
20260506042847 59 193 0.0 0.0 0.00 0.18 0.18 72 1016.1
20260506042345 60 193 0.0 0.0 0.00 0.18 0.18 71 1016.1
20260506041844 60 193 0.0 0.0 0.00 0.18 0.18 71 1016.1
20260506041341 60 193 0.0 0.0 0.00 0.18 0.18 70 1016.0
20260506040837 60 193 0.0 0.0 0.00 0.18 0.18 69 1016.1
20260506040335 60 193 0.0 0.0 0.00 0.18 0.18 68 1016.0
20260506035831 61 193 0.0 0.0 0.00 0.18 0.18 67 1015.8
20260506035329 61 193 0.0 0.0 0.00 0.18 0.18 66 1015.8
20260506034825 61 193 0.0 0.0 0.00 0.18 0.18 65 1015.8
20260506034323 61 193 0.0 0.0 0.00 0.18 0.18 65 1015.7
20260506033820 62 193 0.0 0.0 0.00 0.18 0.18 64 1015.3
20260506033317 62 193 0.0 0.0 0.00 0.18 0.18 63 1015.4
20260506032813 62 193 0.0 0.0 0.00 0.18 0.18 62 1015.4
20260506032310 62 193 0.0 0.0 0.00 0.18 0.18 62 1015.3
20260506031807 62 193 0.0 0.0 0.00 0.18 0.18 62 1015.2
20260506031304 62 193 0.0 0.9 0.00 0.18 0.18 62 1015.4
20260506030802 62 193 0.0 0.0 0.00 0.18 0.18 61 1015.1
20260506030300 63 193 0.0 0.0 0.00 0.18 0.18 59 1015.2
20260506025757 63 193 0.0 0.0 0.00 0.18 0.18 58 1015.0
20260506025253 63 193 0.0 0.0 0.00 0.18 0.18 56 1014.8
20260506024750 64 193 0.0 0.0 0.00 0.18 0.18 55 1014.8
20260506024246 64 193 0.0 0.0 0.00 0.18 0.18 53 1014.6
20260506023742 64 193 0.0 0.0 0.00 0.18 0.18 52 1014.9
20260506023240 64 150 0.9 0.9 0.00 0.18 0.18 52 1014.6
20260506022736 64 149 0.0 0.0 0.00 0.18 0.18 52 1014.3
20260506022235 65 149 0.0 0.0 0.00 0.18 0.18 52 1014.6
20260506021732 65 149 0.0 0.0 0.00 0.18 0.18 51 1014.5
20260506021229 65 148 0.0 0.0 0.00 0.18 0.18 51 1014.6
20260506020726 65 147 0.0 0.0 0.00 0.18 0.18 51 1014.4
20260506020224 65 147 0.0 0.0 0.00 0.18 0.18 50 1014.2
20260506015721 65 145 0.0 0.0 0.00 0.18 0.18 48 1014.5
20260506015345 65 145 0.9 0.9 0.00 0.18 0.18 47 1014.3
20260506014842 66 126 0.0 0.0 0.00 0.18 0.18 46 1014.2
20260506014338 66 104 0.9 0.9 0.05 0.18 0.18 46 1014.3
20260506013835 66 11 0.0 0.0 0.05 0.18 0.18 47 1014.1
20260506013333 67 258 0.0 0.0 0.00 0.17 0.17 47 1014.1
20260506012828 67 229 0.9 0.9 0.00 0.17 0.17 46 1013.9
20260506012326 67 17 0.9 0.9 0.00 0.17 0.17 47 1014.2
20260506011823 67 17 0.9 0.9 0.00 0.17 0.17 46 1014.2
20260506011320 67 351 0.0 0.0 0.00 0.17 0.17 47 1014.2
20260506010817 68 1 0.0 0.0 0.00 0.17 0.17 47 1014.3
20260506010315 68 355 0.0 0.0 0.00 0.17 0.17 46 1014.1
20260506005812 68 12 0.0 0.0 0.00 0.17 0.17 48 1014.2
20260506005309 68 13 0.0 0.0 0.00 0.17 0.17 47 1014.0
20260506004804 68 12 0.0 0.0 0.00 0.17 0.17 47 1014.3
20260506004632 68 12 0.0 0.0 0.00 0.17 0.17 47 1014.2